Volver al catálogo

DIAMANT R/B

ActivoLEO
NORAD 2682·ROCKET BODY·🇫🇷 France

Lanzado Feb 15, 1967 desde Hammaguir Space Track Range

Loading…

Próximos Pases (próximas 24 horas)

TLE

ActualizadoSource: Space-Track

Época: Sep 14, 2026, 21:39 UTC

1 02682U 67014B   26257.90269267  .00000181  00000-0  11265-3 0  9997
2 02682  39.4563 238.9984 0745469  86.1002 282.4543 13.32672596875850

Sigue DIAMANT R/B en tiempo real con AllMySat

Download on the App Store